Dewpoint
53 55 55 55 57 59 59 59 59 58 58 59 59 59 60 60 59 58 57 57 57 57 56 56 58 58 50 37 32 42 57 51 37 31 27 23 20 20 19 16 15 13 13 13 16 15 13
52 53 54 55 56 57 59 59 59 58 58 59 59 59 59 59 59 58 57 57 57 57 56 56 57 57 45 37 30 32 34 31 30 26 26 25 24 25 27 24 21 19 19 19 19 18 18
51 51 52 54 55 56 59 58 58 58 58 58 58 58 58 58 58 58 57 57 57 57 56 56 57 50 43 39 34 31 35 34 30 30 27 28 29 28 26 25 26 24 23 24 23 22 20
51 50 52 53 54 55 55 58 58 58 58 58 58 57 57 57 57 57 57 56 56 56 56 57 57 48 41 37 34 33 33 30 33 33 32 32 31 29 27 27 25 25 26 25 24 22 21
51 51 49 51 53 55 55 58 58 58 58 57 57 57 56 56 56 56 56 56 56 56 57 57 52 49 40 45 37 36 35 32 30 31 33 31 32 30 29 26 25 27 24 23 21 21 23
51 51 50 50 52 54 55 57 58 58 58 57 57 57 56 56 55 55 55 55 56 56 54 50 46 42 41 31 34 40 41 34 29 34 33 37 34 31 30 25 23 20 19 21 22 22 23
51 51 51 50 50 52 54 56 58 57 57 57 57 56 56 55 55 54 54 52 48 47 48 41 39 34 25 32 40 37 42 39 36 39 36 37 33 29 28 28 25 24 25 24 25 26 26
51 51 51 50 52 53 53 55 58 57 57 57 56 56 56 55 55 55 54 45 42 45 42 46 42 39 35 34 38 38 41 39 39 38 38 36 34 32 30 29 28 28 28 28 29 28 28
50 50 50 51 51 51 54 55 57 57 57 56 56 56 55 55 54 55 52 46 42 46 39 34 44 42 36 31 30 32 38 38 35 36 35 33 31 35 34 32 32 31 30 30 29 30 28
50 50 50 50 51 51 53 54 57 57 57 56 56 55 54 54 53 54 51 49 48 54 31 25 28 34 35 30 28 29 31 36 35 31 30 33 32 31 30 32 31 31 31 31 30 30 27
50 50 50 50 50 51 52 53 56 57 57 56 55 55 54 55 54 52 52 52 56 54 29 31 29 36 35 32 36 35 33 29 32 33 33 32 32 32 30 30 31 32 34 32 33 32 32
50 50 50 50 50 50 52 52 55 56 56 56 55 55 54 54 56 54 53 55 51 36 27 33 39 39 40 36 36 41 38 34 30 32 33 33 32 31 31 35 34 34 33 34 34 32 30
50 50 50 50 50 50 52 52 54 55 56 56 55 55 55 56 52 56 56 50 34 30 32 32 39 40 40 38 37 39 40 39 33 31 37 38 37 36 36 35 35 33 33 30 28 29 28
50 50 50 50 50 50 52 52 53 55 55 55 55 54 55 56 57 56 53 43 30 32 31 34 38 39 39 40 39 40 39 38 39 38 35 34 34 37 38 37 34 32 32 30 24 25 24
50 50 50 50 50 50 50 52 53 54 55 55 54 54 55 56 57 55 47 33 34 34 34 33 37 38 37 38 38 39 39 38 38 40 35 33 33 33 36 37 35 32 31 32 31 30 28
50 50 50 50 50 50 50 53 53 55 55 54 53 52 52 57 57 53 43 34 37 36 38 35 34 39 36 36 36 37 37 38 37 38 38 35 31 33 32 35 35 34 32 32 34 28 26
49 49 50 50 50 51 52 53 54 55 54 54 53 47 45 50 56 48 37 36 38 38 38 37 39 39 36 35 36 36 35 34 37 36 36 36 34 33 33 32 30 31 31 32 32 32 30
49 50 50 51 52 52 53 53 54 54 54 53 49 37 45 46 44 38 39 40 40 37 39 41 40 39 38 37 39 36 34 35 35 37 34 37 34 30 31 33 31 30 31 32 33 28 30
47 48 49 49 49 49 51 53 53 53 53 49 38 37 45 45 34 32 38 39 41 37 39 40 40 39 40 41 40 41 40 43 39 36 37 38 36 30 29 31 30 28 29 28 32 35 33
44 45 46 47 48 48 48 49 49 51 52 48 41 34 37 38 35 34 35 38 39 41 42 42 39 40 41 40 41 38 38 40 39 36 42 40 34 32 29 29 31 31 28 27 28 31 31
41 42 43 45 46 46 47 47 47 48 48 48 40 35 39 32 32 36 39 37 36 36 40 43 41 42 40 37 39 39 39 41 41 41 38 37 34 32 30 28 28 27 27 26 28 30 31
42 41 40 41 42 44 45 46 46 47 47 41 34 36 40 38 38 37 36 33 35 36 38 36 37 41 42 38 39 38 40 41 39 40 37 39 38 35 33 31 29 30 28 28 27 27 28
40 40 40 38 37 40 43 44 46 47 45 38 40 41 42 38 36 34 33 34 35 37 36 39 39 41 40 40 41 40 41 41 41 41 40 39 38 37 32 32 32 32 32 31 30 28 29
39 39 40 40 40 37 38 41 43 43 45 44 42 42 39 33 36 35 37 38 38 37 35 37 41 39 39 40 40 39 39 38 39 38 39 36 35 35 32 31 27 28 27 27 28 30 32
38 39 39 40 40 40 39 37 38 40 42 44 45 42 38 34 36 36 37 38 39 39 37 38 39 40 40 38 35 32 33 34 34 36 38 38 36 32 29 28 27 26 26 28 29 29 31
39 38 40 40 39 40 40 39 38 38 39 44 41 43 41 38 36 37 36 38 35 35 35 37 39 40 39 37 34 29 26 26 27 29 34 36 36 33 31 25 22 28 28 28 28 27 29
39 39 38 40 41 40 39 40 40 38 37 37 39 45 38 37 37 39 37 36 38 36 35 37 38 38 39 35 32 30 30 27 29 26 27 32 33 28 28 26 26 23 26 25 22 26 27
40 39 39 39 39 41 40 39 40 40 39 36 38 41 40 38 35 36 38 38 38 38 32 37 34 36 36 32 31 29 27 27 24 26 23 25 25 25 25 23 21 28 25 22 28 23 18
40 40 39 39 39 39 40 40 39 40 40 37 33 33 36 37 34 37 38 36 37 39 38 37 33 32 35 34 32 30 27 28 23 18 23 27 27 26 25 25 28 23 19 19 19 20 18
Lifted_Index
11 9 7 7 6 5 5 6 6 7 7 7 7 7 7 8 8 9 9 10 10 10 10 11 11 10 10 9 9 10 11 11 11 11 10 9 9 8 7 6 6 6 6 6 6 6 6
11 10 8 7 7 5 5 5 6 7 7 7 7 7 7 8 8 9 9 10 10 10 11 11 11 10 10 9 10 10 11 11 11 10 10 9 8 8 7 7 6 6 6 6 6 6 6
12 11 10 8 7 6 5 4 5 6 7 7 7 7 7 8 8 9 9 10 10 11 11 10 10 10 10 9 10 10 10 10 10 10 9 9 9 8 8 7 7 6 5 5 5 5 5
11 12 11 9 7 6 5 4 5 6 6 7 7 8 8 8 8 8 9 10 10 10 10 10 10 10 9 9 10 10 10 10 10 9 9 9 9 9 8 7 6 5 4 3 3 4 4
11 11 12 10 8 7 6 5 4 5 6 7 7 8 8 8 8 8 9 9 10 10 10 9 9 9 9 9 9 9 9 9 9 9 9 9 8 8 7 6 4 4 3 3 3 3 3
11 11 12 11 9 7 6 5 4 4 5 6 7 7 8 8 8 9 9 9 9 9 9 9 9 9 9 9 9 8 8 8 8 8 7 7 7 7 6 5 3 3 3 3 3 3 3
11 11 12 12 10 8 6 6 5 4 5 6 6 7 7 8 8 9 9 9 9 8 8 8 8 9 9 8 8 7 7 7 6 6 5 5 5 5 4 4 4 3 3 3 3 3 3
10 10 11 11 11 9 7 6 6 5 5 5 6 6 6 7 8 8 9 9 8 8 8 8 8 8 9 8 7 7 6 6 5 5 4 4 4 4 3 3 3 3 3 3 3 3 3
10 10 11 11 11 10 8 7 6 5 4 5 5 5 5 6 7 8 8 8 7 7 8 8 8 8 8 8 8 7 6 5 4 4 4 3 3 3 2 2 2 2 2 3 3 3 3
10 10 11 11 11 11 9 7 6 5 4 4 4 4 5 6 7 8 7 7 6 6 7 7 7 8 8 7 7 7 6 5 4 3 3 3 3 2 2 2 2 2 2 2 3 3 4
9 10 11 11 11 11 9 7 6 6 5 4 3 3 4 6 6 7 6 5 5 4 4 5 6 6 6 6 5 5 5 5 4 3 3 3 3 3 3 2 3 3 2 2 2 3 3
9 10 10 11 11 11 10 8 6 6 5 4 4 3 4 5 6 6 5 4 4 3 3 4 4 5 5 4 4 3 4 4 4 3 3 3 3 3 3 3 3 3 2 2 2 2 3
8 9 10 10 10 10 10 8 7 6 5 4 4 4 4 5 6 6 5 4 2 2 3 3 4 4 4 3 3 3 3 3 3 2 2 3 3 3 3 3 3 3 3 2 1 2 2
7 8 10 10 10 10 10 9 7 6 5 4 4 4 4 5 6 6 5 4 2 2 3 2 2 3 3 3 3 2 2 2 2 2 2 2 2 3 3 3 3 3 3 2 1 1 1
6 8 9 10 11 10 10 9 7 6 4 4 4 3 3 4 5 6 5 4 3 3 3 2 1 2 3 3 3 2 2 2 2 2 1 1 1 2 3 3 3 2 2 1 1 1 1
6 7 9 10 10 10 9 9 7 6 4 4 4 4 4 4 5 5 4 4 4 3 3 2 2 2 2 3 3 3 2 2 2 2 1 0 0 1 2 2 2 2 1 1 0 1 1
5 6 8 9 10 9 8 8 7 5 4 4 4 4 5 5 5 4 3 3 4 4 3 3 2 2 2 2 2 2 2 2 2 1 1 0 0 1 1 2 2 1 1 0 0 0 1
5 6 7 8 7 7 6 6 6 5 4 4 4 4 5 4 4 4 3 4 4 4 4 3 3 2 2 2 2 2 1 1 1 1 0 0 0 1 1 1 1 1 1 0 0 1 1
6 6 7 7 6 5 4 4 4 3 4 4 3 4 4 4 4 3 4 4 4 4 4 4 3 2 2 2 1 1 1 1 1 1 1 1 1 1 1 1 1 1 1 1 0 0 1
8 8 8 7 6 5 4 3 2 2 2 2 2 3 4 4 4 4 4 4 4 4 4 4 3 3 2 2 1 1 1 1 2 2 1 1 1 1 1 1 1 1 1 1 1 0 0
9 9 9 9 8 7 5 4 3 2 2 2 1 2 3 3 3 4 4 4 3 3 4 4 3 3 2 2 2 1 1 1 2 2 2 2 2 2 2 1 1 0 0 1 1 0 0
9 10 10 11 10 9 8 7 5 4 3 3 2 2 2 2 2 3 4 3 3 3 3 3 3 2 2 2 2 2 2 2 2 2 2 2 2 2 2 2 1 0 1 1 1 1 0
10 10 10 11 11 11 11 9 8 6 5 5 4 4 3 2 2 3 3 3 3 3 3 3 3 3 3 3 3 3 3 2 2 2 2 2 2 2 2 1 1 1 2 1 1 1 1
10 10 10 10 11 12 11 11 10 8 7 7 6 5 4 2 2 3 3 4 4 4 4 4 4 3 3 3 3 3 3 3 3 2 2 2 2 2 2 1 1 1 2 1 1 1 1
10 10 10 10 10 11 11 11 10 9 8 8 7 6 5 4 4 4 4 5 5 5 5 5 4 4 4 3 3 3 3 3 3 2 2 2 2 1 1 1 1 2 2 2 2 1 1
10 10 10 10 10 10 10 10 10 9 8 8 8 7 6 5 5 5 5 5 5 5 5 5 5 5 4 3 3 2 2 2 2 2 2 2 2 1 1 1 1 2 2 2 2 2 2
9 9 9 10 10 10 10 10 10 9 9 9 8 8 7 6 6 6 5 5 5 5 5 5 5 5 4 3 2 2 2 2 2 2 2 2 2 1 1 1 2 2 3 3 2 2 3
7 8 8 9 9 9 9 9 9 9 9 8 8 8 7 7 7 6 6 5 5 5 4 4 4 4 4 3 3 2 2 2 2 2 2 2 2 1 1 1 2 2 3 3 3 4 4
7 7 7 8 8 9 9 9 9 9 9 8 8 8 7 7 7 6 6 5 5 4 4 4 3 4 4 3 3 3 3 3 3 2 2 2 2 2 2 1 2 2 3 4 4 4 5